Regional Weather Roundup
Issued by NWS

Home | Current Version | Previous Version | Text Only | Print | Product List | Glossary Off
Versions: 1 2 3 4 5 6 7 8 9 10 11 12 13 14 15 16 17 18 19 20 21 22 23 24 25 26 27 28 29 30 31 32 33 34 35 36 37 38 39 40 41 42 43 44 45 46 47 48 49 50

000
ASUS43 KIND 010509
RWRIN

WEATHER ROUNDUP FOR INDIANA
NATIONAL WEATHER SERVICE INDIANAPOLIS IN
100 AM EDT WED JUL 01 2015

NOTE: "FAIR" INDICATES FEW OR NO CLOUDS BELOW 12,000 FEET WITH NO
SIGNIFICANT WEATHER AND/OR OBSTRUCTIONS TO VISIBILITY.

* - STATION DOES NOT REPORT WEATHER SUCH AS PRECIPITATION OR FOG.

+ - STATION NOT QUALITY CONTROLLED BY THE NATIONAL WEATHER SERVICE.
    USE DATA WITH CAUTION...ESPECIALLY DEWPOINT AND RELATIVE
    HUMIDITY OBSERVATIONS.

INZ001>003-010>013-019-020-010600-
NORTHWEST INDIANA

CITY           SKY/WX    TMP DP  RH WIND       PRES   REMARKS
GARY /AIRPORT/ MOCLDY   N/A N/A N/A N8        29.92S
KNOX *+        CLEAR     59  59 100 CALM      29.90S
LA PORTE +     PTCLDY    60  60 100 CALM      29.91S
MICHIGAN CITY+ MOCLDY    57  57 100 CALM      29.91S
MONTICELLO +   PTCLDY    63  61  92 N5        29.90R
RENSSELAER +   PTCLDY    61  61 100 N3        29.91S
VALPARAISO     PTCLDY    59  56  89 NW5       29.91S

$$

LMZ046-743>745-010600-
SOUTHERN LAKE MICHIGAN

STATION/POSITION TIME  TEMP    WIND        PRES    WAVE
                       AIR SEA DIR/SP/G            HT
                 (UTC) (F)     (DEG/KT/KT) (MB)    (FT)
BURNS HARBOR     0500   61     340/  6/  8 1013.5F
MICHIGAN CITY    0500   61     330/  9/ 10   N/A
5NW MICH CITY    0500   60 65  340/  8/ 10   N/A     2

$$

INZ004-005-014>016-021>024-010600-
NORTH CENTRAL INDIANA

CITY           SKY/WX    TMP DP  RH WIND       PRES   REMARKS
LOGANSPORT +   PTCLDY    61  55  82 N5        29.91R
PERU/GRISSOM   CLEAR     64  59  84 NW5       29.90R
ROCHESTER +    CLEAR     61  61 100 NW5       29.90R
SOUTH BEND     NOT AVBL
WARSAW +         N/A     57  55  94 NW5       29.89S

$$

INZ006>009-017-018-025>027-010600-
NORTHEAST INDIANA

CITY           SKY/WX    TMP DP  RH WIND       PRES   REMARKS
ANGOLA *+      CLEAR     61  57  88 NW6       29.85S
AUBURN +       CLEAR     61  55  82 W7        29.87S
FORT WAYNE     NOT AVBL
HUNTINGTON +   CLEAR     61  58  91 W5        29.88S

$$

INZ028-029-035-036-043>045-051>053-010600-
WEST CENTRAL INDIANA

CITY           SKY/WX    TMP DP  RH WIND       PRES   REMARKS
CRAWFORDSVL +  CLEAR     61  60  97 CALM      29.90R
GREENCASTLE +  CLEAR     64  61  88 N3        29.90S
LAFAYETTE      NOT AVBL
TERRE HAUTE    NOT AVBL

$$

INZ030>032-037>040-046>048-054>057-064-065-010600-
CENTRAL INDIANA

CITY           SKY/WX    TMP DP  RH WIND       PRES   REMARKS
CP ATTERBURY + PTCLDY    63  61  94 CALM      29.90S
FISHERS *+     PTCLDY    64  63  94 CALM      29.90R
FRANKFORT +    PTCLDY    65  63  95 N3        29.92R
GREENWOOD *+   PTCLDY    66  61  82 CALM      29.90R
INDIANAPOLIS   NOT AVBL
MARION +       CLEAR     61  59  92 NW3       29.90S
MT COMFORT *+  PTCLDY    63 N/A N/A CALM      29.90S
SHELBYVILLE    NOT AVBL
ZIONSVILLE +   PTCLDY    65  61  86 CALM      29.91R

$$

INZ033-034-041-042-049-050-058-059-010600-
EAST CENTRAL INDIANA

CITY           SKY/WX    TMP DP  RH WIND       PRES   REMARKS
MUNCIE         NOT AVBL

$$

INZ060-061-067>069-081>083-085>088-010600-
SOUTHWEST INDIANA

CITY           SKY/WX    TMP DP  RH WIND       PRES   REMARKS
EVANSVILLE     NOT AVBL
WASHINGTON +   MOCLDY    71  67  87 CALM      29.89R

$$

INZ062-063-066-070>080-084-089>092-010600-
SOUTH CENTRAL AND SOUTHEAST INDIANA

CITY           SKY/WX    TMP DP  RH WIND       PRES   REMARKS
BLOOMINGTON    NOT AVBL
MADISON *+     CLOUDY    64  63  94 SW5       29.93R
NORTH VERNON + PTCLDY    64  64 100 CALM      29.90S
SEYMOUR +      MOCLDY    66  66 100 CALM      29.90R

$$




USA.gov is the U.S. government's official web portal to all federal, state and local government web resources and services.